sat.trackr.live / text

‹ back to catalog

HAISHAO-1

NORAD 62190 · 2024-228A

PAYLOAD ACTIVE UNKNOWN

§ Identity

Operator
Country
PRC
Launch date
2024-12-04
Launch site
XICLF
Launch vehicle
Mass (kg)
RCS (m²)

External: N2YO · Heavens-Above · Gunter

§ Orbital elements

Epoch: 2026-05-25T05:11:31.083072Z

Period
92.00 min
Inclination
42.9790°
Eccentricity
0.0000574
Mean motion
15.65167115 rev/d
Perigee alt
372.4 km
Apogee alt
373.1 km
Semi-major
6,750.9 km
B*
2.9560e-4
RAAN
142.6771°
Arg perigee
55.5507°
Mean anomaly
304.5412°
Rev number
8,398

§ Raw data

HAISHAO-11 62190U 24228A   26145.21633198  .00029756  00000+0  29560-3 0  99902 62190  42.9790 142.6771 0000574  55.5507 304.5412 15.65167115 83987

JSON: /api/v1/satellites/62190 · /tle

For live sub-satellite position, see the globe view (requires WebGL).

§ Visibility from observer

Set your observer location to see the next 7 days of passes ≥ 10°. The values pass through the URL so the page stays shareable.

No JS? Fill the form by hand. The geolocation button needs JavaScript.